Location: Baili�vre
(50.0696°N, 4.2409°E)
Time: 15:14:53
(UTC+00:00)

USA 238 DEB - Pass Details

Date: 08 August 2020
Orbit: 1006 x 1206 km, 63.4° (Epoch: 17 September)

Event Time Altitude Azimuth Distance (km) Brightness Sun altitude
Rises 22:19:44 0° 229° (SW) 3,748 6.4 -21.3°
Reaches altitude 10° 22:22:18 10° 231° (SW) 2,816 5.7 -21.4°
Maximum altitude 22:28:56 74° 316° (NW) 1,100 3.8 -21.8°
Drops below altitude 10° 22:35:55 10° 42° (NE) 2,955 6.4 -22.2°
Sets 22:38:41 0° 45° (NE) 3,945 7.0 -22.4°
